www.pogodaiklimat.ru

Погода и климат >> Архив погоды >> Россия >> Камчатский край >> Петропавловск-Камчатский


АРХИВ ПОГОДЫ в Петропавловск-Камчатском

Время (UTC), дата Ветер
(напр.,м/с)
 
Видим.   Явления Облачность Т
(С)
Тd
(С)
f
(%)
Тe
(С)
Тes
(С)
Комфортность P
(гПа)
Po
(гПа)
Тmin
(С)
Tmax
(С)
R
(мм)
R24
(мм)
S
(см)
00 12.11 В 4
{15}
10 км ливневой снег 10/10 300 м
[Cb cap]
+2.1 -3.0 69 -3 -3 по сезону 1013.5 1010.4
03 12.11 В 2
{12}
4000 м ливневой снег 10/10 300 м
[Cb cap]
+1.3 -1.6 81 -2 -2 по сезону 1010.7 1007.7
06 12.11 В 4-12
{14}
2000 м ливневой снег 10/10 300 м
[Cb cap]
+1.9 -0.8 82 -3 -3 по сезону 1007.6 1004.6
09 12.11 В 6-17
{17}
10 км слабый ливневой дождь со снегом 10/10 300 м
[Cb cap]
+3.1 -0.6 77 -2 -2 по сезону 1005.2 1002.2 +3.1 6
12 12.11 В 5-11
{17}
4000 м слабый ливневой дождь 10/10 300 м
[Cb cap]
+3.7 +0.9 82 -1 -1 по сезону 1004.1 1001.2
15 12.11 В 3
{11}
10 км слабый ливневой дождь 10/10 300 м
[Cb cap]
+4.4 +1.5 81 +1 +1 тепло 1001.5 998.6
18 12.11 В 4
{11}
10 км слабый ливневой дождь 10/10 600 м
[Cb cap]
+4.5 +1.9 83 0 0 тепло 1000.7 997.7
21 12.11 В 3
{10}
10 км слабый ливневой дождь 10/10 300 м
[Cb cap]
+3.6 +1.3 85 -0 -0 тепло 1000.1 997.2 +2.8 8 0
00 13.11 З 3
{10}
10 км слабый ливневой дождь 10/10 300 м
[Cb cap]
+3.1 +1.0 86 -1 -1 по сезону 999.6 996.7
03 13.11 СЗ 2 4000 м слабый ливневой дождь 10/10 200 м
[Cb cap]
+2.7 +1.5 92 -1 -1 по сезону 997.8 994.8
06 13.11 С 2 10 км слабый ливневой дождь 10/10 300 м
[Cb cap]
+1.8 +0.8 93 -2 -2 по сезону 997.0 994.0
09 13.11 С 3 20 км в посл. час ливневой дождь 9/9 600 м
[Sc]
+2.6 +0.6 87 -2 -2 по сезону 996.7 993.7 +3.6 3
12 13.11 С 2 20 км {ливн. осадки} 8/4 600 м
[Sc Ac trans]
+1.1 -0.1 92 -2 -2 по сезону 996.5 993.5
15 13.11 С 3 20 км 1/0
[Ci fib]
+1.8 -0.7 83 -2 -2 по сезону 996.1 993.1
18 13.11 С 4 20 км 4/1 600 м
[Sc Ac trans]
+2.2 -0.9 80 -3 -3 по сезону 996.7 993.7
21 13.11 С 5 20 км 1/1 600 м
[Sc]
+2.4 -1.3 77 -3 -3 по сезону 997.6 994.6 +1.0 0.0 0
00 14.11 З 9-13
{14}
50 км 1/1 600 м
[Sc]
+5.1 -1.3 63 -1 -1 по сезону 998.8 995.9
03 14.11 СЗ 11-15
{16}
20 км 3/3 600 м
[Sc]
+5.6 -1.2 62 -1 -1 по сезону 1000.0 997.1
06 14.11 З 11-14
{15}
20 км 3/3 600 м
[Sc]
+3.9 -2.5 63 -3 -3 по сезону 1003.2 1000.3
09 14.11 СЗ 5
{14}
20 км 3/1 600 м
[Sc Ac trans]
+2.9 -2.0 70 -2 -2 по сезону 1006.2 1003.3 +5.8
12 14.11 С 4
{10}
20 км 5/1 600 м
[Sc Ac trans Ci fib]
+3.2 -2.4 67 -1 -1 по сезону 1008.2 1005.2
15 14.11 З 8-12
{12}
20 км 1/1 600 м
[Sc]
+3.7 -3.1 61 -2 -2 по сезону 1010.2 1007.2
18 14.11 З 5
{13}
50 км ясно +2.2 -3.9 64 -3 -3 по сезону 1013.0 1010.0
21 14.11 С 2 50 км 3/1 600 м
[Sc Ac trans Ci fib]
+1.0 -5.9 60 -2 -2 по сезону 1014.4 1011.3 +1.0 0
00 15.11 СЗ 2 20 км 10/3 600 м
[Sc Ac und]
+1.2 -4.3 67 -2 -2 по сезону 1013.9 1010.9
03 15.11 ЮВ 3 4000 м слабый ливневой дождь 10/10 200 м
[Cb cap]
+1.5 +0.2 91 -3 -3 по сезону 1011.4 1008.4
06 15.11 В 8-15
{15}
10 км слабый ливневой дождь 10/10 200 м
[Cb cap]
+4.9 +3.1 88 -1 -1 по сезону 1006.9 1003.9
09 15.11 ЮВ 6-13
{16}
4000 м ливневой дождь 10/10 200 м
[Cb cap]
+5.6 +4.1 90 +1 +1 тепло 1003.8 1000.9 +5.8 5
12 15.11 СЗ 3
{14}
10 км туман на расстоянии {ливн. осадки} 10/10 200 м
[St]
+2.4 +1.3 92 -2 -2 по сезону 1003.9 1000.9
15 15.11 С 2 20 км 1/1 600 м
[Sc diur, vesp]
+4.1 -0.8 70 +2 +2 тепло 1008.3 1005.3
18 15.11 З 4
{11}
20 км 8/8 600 м
[Sc]
+2.9 -2.2 69 -2 -2 по сезону 1012.6 1009.6
21 15.11 ЮЗ 2 20 км 8/8 600 м
[Sc]
+2.6 -5.3 56 0 0 тепло 1016.0 1013.0 +2.1 0.6
00 16.11 штиль 0 20 км 6/6 600 м
[Sc]
+3.5 -2.9 63 +3 +4 тепло 1019.3 1016.3 +1.9
03 16.11 СЗ 3 20 км 10/6 600 м
[Sc Ac As Ci fib]
+4.4 -4.6 52 +1 +2 тепло 1020.0 1017.0
06 16.11 С 1 50 км 8/4 1000 м
[Sc Ac As Ci fib]
+2.8 -6.9 49 +2 +2 тепло 1021.1 1018.0
09 16.11 штиль 0 20 км 9/9 600 м
[Sc]
+1.4 -2.8 74 +1 +1 тепло 1021.0 1017.9 +5.1
12 16.11 С 2 10 км слабый ливневой снег 10/10 600 м
[Cb cap]
+2.1 -4.1 64 -1 -1 тепло 1018.5 1015.5
15 16.11 СВ 6-16
{16}
2000 м слабый ливневой снег 10/10 600 м
[Cb cap]
+2.1 -1.2 79 -4 -4 по сезону 1011.1 1008.1
18 16.11 СЗ 7-10
{20}
4000 м слабый ливневой снег 10/10 600 м
[Cb cap]
+0.6 -0.9 90 -6 -6 по сезону 1006.3 1003.3
21 16.11 СЗ 5
{10}
4000 м слабый ливневой снег 10/10 600 м
[Cb cap]
+0.8 -0.2 93 -5 -5 по сезону 1004.0 1001.0 +0.4 13 1
00 17.11 СЗ 4 10 км слабый ливневой дождь 10/10 600 м
[Cb cap]
+1.6 +0.2 90 -4 -4 по сезону 1002.0 999.0
03 17.11 СЗ 5 1000 м слабый ливневой дождь {туман} 10/10 200 м
[St]
+1.5 +0.5 93 -4 -4 по сезону 998.2 995.3
06 17.11 С 3 500 м слабый ливневой дождь {туман} туман ?/? +1.3 +0.5 94 -3 -3 по сезону 997.6 994.6
09 17.11 СЗ 3 500 м слабый ливневой дождь {туман} туман ?/? +1.4 +0.7 95 -3 -3 по сезону 997.7 994.7 +1.9 7
12 17.11 С 2 10 км слабый ливневой дождь со снегом {туман} 10/10 200 м
[Cb cap]
+1.4 +0.7 95 -2 -2 по сезону 999.8 996.8
15 17.11 СЗ 8-12
{12}
20 км {ливн. осадки} 6/6 600 м
[Sc]
+2.2 -2.1 73 -4 -4 по сезону 1002.5 999.5
18 17.11 З 14-17
{19}
50 км {ливн. осадки} ясно +2.0 -4.9 60 -6 -6 по сезону 1006.1 1003.1
21 17.11 З 13-16
{19}
50 км ясно +1.2 -6.3 57 -7 -7 по сезону 1010.4 1007.4 +1.2 0.1 0
00 18.11 СЗ 6
{17}
50 км 3/0
[Ci fib]
+1.3 -6.7 55 -4 -4 по сезону 1014.4 1011.3 +0.5
03 18.11 СЗ 4
{10}
50 км 1/0
[Ci fib]
+2.3 -7.0 50 -2 -1 по сезону 1015.2 1012.2
06 18.11 С 2 20 км 3/1 600 м
[Sc Ac trans Ci fib]
+0.7 -6.6 58 -2 -2 по сезону 1017.8 1014.8
09 18.11 штиль 0 20 км ясно -0.6 -5.3 70 -1 -1 тепло 1020.0 1016.9 +2.3
12 18.11 С 2 20 км ясно -1.5 -5.9 72 -5 -5 по сезону 1022.5 1019.4
15 18.11 штиль 0 20 км ясно -2.0 -4.6 82 -3 -3 по сезону 1022.7 1019.6
18 18.11 ЮВ 5
{10}
20 км 6/6 600 м
[Sc]
+2.0 -3.2 68 -3 -3 по сезону 1021.7 1018.7

 

Местоположение метеостанции Петропавловск-Камчатский (Камчатский край, Россия): широта 52.87 долгота 158.60 высота над уровнем моря 24 м.

В архиве по умолчанию представлена погода в Петропавловск-Камчатском за последнюю неделю. Архивные данные за месяц целиком и за предыдущие месяцы, начиная с января 2011 года, Вы можете получить, выбрав интересующий диапазон дат из раскрывающегося списка и нажав кнопку "Ввод!".

Внимание! Время в таблицах - всемирное. Для получения местного времени необходимо прибавить поправку, которая в Петропавловск-Камчатском равна 12 ч.

Смотрите также архив погоды в соседних городах и на ближайших метеорологических станциях:

Погода в Петропавловском Маяке (Камчатский край, Россия) (7 км)
Погода в Петропавловск-Камч. 2 (Камчатский край, Россия) (24 км)
Погода в Сосновке (Камчатский край, Россия) (31 км)
Погода в Начиках (Камчатский край, Россия) (66 км)
Погода в Водопадной (Камчатский край, Россия) (124 км)
Погода в Пущино (Камчатский край, Россия) (151 км)
Погода в Большерецке (Камчатский край, Россия) (155 км)
Погода в Семячике (Камчатский край, Россия) (163 км)
Погода в Мильково (Камчатский край, Россия) (201 км)
Погода в Озерной (Камчатский край, Россия) (215 км)

Пояснения к столбцам:

Ветер - указаны скорость ветра в м/с - средняя за 10 мин, порывы в срок и между сроками (в фигурных скобках) и направление, откуда дует ветер: С - северный, СВ - северо-восточный, В - восточный, ЮВ - юго-восточный, Ю - южный, ЮЗ - юго-западный, З - западный, СЗ - северо-западный.
Видимость - горизонтальная дальность видимости в метрах или километрах. При видимости от 1 до 10 км при отсутствии осадков обычно наблюдается дымка, при ухудшении видимости до 1 км и менее - туман. В сухую погоду видимость может ухудшаться дымом, пылью или мглою.
Явления - указаны атмосферные явления, наблюдавшиеся в срок или в последний час перед сроком; фигурными скобками обозначены явления, наблюдавшиеся между сроками (за 1-3 часа до срока); квадратными скобками обозначены град или гололедные отложения с указанием их диаметра в мм.
Облачность - указаны через наклонную черту общая и нижняя облачность в баллах и высота нижней границы облаков в метрах; квадратными скобками обозначены формы облаков: Ci - перистые, Cs - перисто-слоистые, Cc - перисто-кучевые, Ac - высококучевые, As - высокослоистые, Sc - слоисто-кучевые, Ns - слоисто-дождевые, Cu - кучевые, Cb - кучево-дождевые. Подробнее классификацию облаков см. в Атласе облаков (PDF).
T - Температура воздуха - температура, измеренная на высоте 2 м над землей.
Td - Температура точки росы - температура, при понижении до которой содержащийся в воздухе водяной пар достигнет насыщения.
f - Относительная влажность воздуха - влажноcть воздуха, измеренная на высоте 2 м над землей.
Te - Эффективная температура - температура, которую ощущает одетый по сезону человек в тени. Характеристика душности погоды. При расчете учитывается влияние влажности воздуха и скорости ветра на теплоощущения человека.
Tes - Эффективная температура на солнце - температура, которую ощущает человек, с поправкой на солнечный нагрев. Характеристика знойности погоды. Зависит от высоты солнца над горизонтом, облачности и скорости ветра. Ночью, в пасмурную погоду, а также при ветре 12 м/с и более поправка равна нулю.
P - Атмосферное давление - приведенное к уровню моря атмосферное давление.
Po - Атмосферное давление - измеренное на уровне метеостанции атмосферное давление.
Tmin - Минимальная температура - минимум температуры воздуха на высоте 2 м над землей.
Tmax - Максимальная температура - максимум температуры воздуха на высоте 2 м над землей.
R - Количество осадков - Количество выпавших осадков за период времени, мм. При наведении курсора мыши на число - период времени, за который выпало указанное количество осадков.
R24 - Количество осадков - Количество выпавших осадков за 24 часа, мм.
S - Снежный покров - Высота снежного покрова, см. При наведении курсора мыши на число - состояние снежного покрова и степень покрытия местности в баллах.